sat.trackr.live / text

‹ back to catalog

STARLINK-32578

NORAD 61979 · 2024-210W

PAYLOAD ACTIVE UNKNOWN

§ Identity

Operator
Country
US
Launch date
2024-11-14
Launch site
AFETR
Launch vehicle
Mass (kg)
RCS (m²)

Purposes: comms

External: N2YO · Heavens-Above · Gunter

§ Orbital elements

Epoch: 2026-09-21T01:45:39.687264Z

Period
94.27 min
Inclination
43.0016°
Eccentricity
0.0001496
Mean motion
15.27595070 rev/d
Perigee alt
482.0 km
Apogee alt
484.0 km
Semi-major
6,861.1 km
B*
2.4702e-4
RAAN
156.2020°
Arg perigee
271.1932°
Mean anomaly
88.8749°
Rev number
10,480

§ Raw data

STARLINK-325781 61979U 24210W   26264.07337601  .00006544  00000+0  24702-3 0  99942 61979  43.0016 156.2020 0001496 271.1932  88.8749 15.27595070104807

JSON: /api/v1/satellites/61979 · /tle

For live sub-satellite position, see the globe view (requires WebGL).

§ Visibility from observer

Set your observer location to see the next 7 days of passes ≥ 10°. The values pass through the URL so the page stays shareable.

No JS? Fill the form by hand. The geolocation button needs JavaScript.